When you browse on this site, cookies collect data to enhance your experience and personalize the content and advertising you see.
Visit our Privacy Policy to learn more. By continuing to use the site, you agree to this use of cookies and data.
  • In Spain
  • List of Countries
  • For 7 days
  • Water Temperature
  • Weather Map
  • Weather Widgets
  • user-avatar
    Login

    Hourly Weather Evora

    Today, 4 June, Thursday

    Time Temperature Precipitation Wind Pressure Humidity
    00:00 +16°C° 0.1 mm 2 mps 734 mmHg 93%
    01:00 +16°C° 0.1 mm 2 mps 734 mmHg 94%
    02:00 +15°C° 0.1 mm 1 mps 734 mmHg 94%
    03:00 +16°C° 0.2 mm 1 mps 734 mmHg 93%
    04:00 +16°C° 0.2 mm 1 mps 734 mmHg 92%
    05:00 +18°C° 0 mm 1 mps 734 mmHg 89%
    06:00 +18°C° 0 mm 2 mps 734 mmHg 82%
    07:00 +20°C° 0 mm 2 mps 734 mmHg 75%
    08:00 +23°C° 0 mm 2 mps 735 mmHg 68%
    09:00 +24°C° 0.6 mm 3 mps 735 mmHg 64%
    10:00 +25°C° 0.6 mm 3 mps 735 mmHg 60%
    11:00 +25°C° 0 mm 3 mps 735 mmHg 57%
    12:00 +26°C° 0.4 mm 4 mps 735 mmHg 54%
    13:00 +26°C° 0.4 mm 4 mps 735 mmHg 52%
    14:00 +27°C° 0.4 mm 5 mps 734 mmHg 50%
    15:00 +26°C° 0.1 mm 5 mps 734 mmHg 50%
    16:00 +26°C° 0.1 mm 5 mps 735 mmHg 50%
    17:00 +26°C° 0.1 mm 5 mps 735 mmHg 50%
    18:00 +23°C° 0 mm 5 mps 735 mmHg 52%
    19:00 +21°C° 0 mm 4 mps 736 mmHg 54%
    20:00 +19°C° 0 mm 4 mps 736 mmHg 56%
    21:00 +17°C° 0 mm 3 mps 736 mmHg 64%
    22:00 +16°C° 0 mm 3 mps 736 mmHg 72%
    23:00 +14°C° 0 mm 3 mps 736 mmHg 80%

    Tomorrow, 5 June, Friday

    Time Temperature Precipitation Wind Pressure Humidity
    00:00 +14°C° 0 mm 2 mps 736 mmHg 83%
    01:00 +13°C° 0 mm 2 mps 736 mmHg 87%
    02:00 +12°C° 0 mm 2 mps 736 mmHg 90%
    03:00 +12°C° 0 mm 2 mps 736 mmHg 91%
    04:00 +12°C° 0 mm 2 mps 736 mmHg 92%
    05:00 +12°C° 0 mm 2 mps 736 mmHg 93%
    06:00 +15°C° 0 mm 2 mps 737 mmHg 82%
    07:00 +17°C° 0 mm 2 mps 737 mmHg 72%
    08:00 +20°C° 0 mm 3 mps 738 mmHg 61%
    09:00 +21°C° 0 mm 3 mps 738 mmHg 53%
    10:00 +24°C° 0 mm 3 mps 738 mmHg 45%
    11:00 +26°C° 0 mm 3 mps 738 mmHg 36%
    12:00 +26°C° 0 mm 4 mps 737 mmHg 36%
    13:00 +27°C° 0 mm 4 mps 737 mmHg 36%
    14:00 +27°C° 0 mm 5 mps 737 mmHg 36%
    15:00 +26°C° 0 mm 5 mps 737 mmHg 40%
    16:00 +25°C° 0 mm 5 mps 736 mmHg 45%
    17:00 +23°C° 0 mm 5 mps 736 mmHg 49%
    18:00 +21°C° 0 mm 4 mps 737 mmHg 56%
    19:00 +19°C° 0 mm 4 mps 737 mmHg 63%
    20:00 +17°C° 0 mm 3 mps 737 mmHg 70%
    21:00 +16°C° 0 mm 3 mps 737 mmHg 75%
    22:00 +14°C° 0 mm 3 mps 737 mmHg 81%
    23:00 +14°C° 0 mm 2 mps 737 mmHg 86%

    Day after tomorrow, 6 June, Saturday

    Time Temperature Precipitation Wind Pressure Humidity
    00:00 +13°C° 0 mm 2 mps 737 mmHg 89%
    01:00 +13°C° 0 mm 2 mps 737 mmHg 92%
    02:00 +12°C° 0 mm 1 mps 736 mmHg 95%
    03:00 +12°C° 0 mm 1 mps 736 mmHg 95%
    04:00 +12°C° 0 mm 1 mps 736 mmHg 94%
    05:00 +12°C° 0 mm 1 mps 736 mmHg 94%
    06:00 +15°C° 0 mm 1 mps 737 mmHg 81%
    07:00 +17°C° 0 mm 2 mps 737 mmHg 69%
    08:00 +19°C° 0 mm 2 mps 737 mmHg 56%
    09:00 +21°C° 0 mm 2 mps 737 mmHg 49%
    10:00 +24°C° 0 mm 2 mps 737 mmHg 42%
    11:00 +26°C° 0 mm 3 mps 737 mmHg 34%
    12:00 +26°C° 0 mm 3 mps 736 mmHg 33%
    13:00 +27°C° 0 mm 4 mps 736 mmHg 32%
    14:00 +28°C° 0 mm 4 mps 736 mmHg 31%
    15:00 +27°C° 0 mm 5 mps 735 mmHg 36%
    16:00 +25°C° 0 mm 5 mps 735 mmHg 41%
    17:00 +23°C° 0 mm 6 mps 735 mmHg 47%
    18:00 +21°C° 0 mm 5 mps 735 mmHg 54%
    19:00 +20°C° 0 mm 5 mps 735 mmHg 60%
    20:00 +17°C° 0 mm 5 mps 735 mmHg 67%
    21:00 +17°C° 0 mm 4 mps 735 mmHg 72%
    22:00 +16°C° 0 mm 3 mps 735 mmHg 77%
    23:00 +14°C° 0 mm 3 mps 735 mmHg 81%

    7 June, Sunday

    Time Temperature Precipitation Wind Pressure Humidity
    00:00 +15°C° 0 mm 2 mps 735 mmHg 84%
    01:00 +14°C° 0 mm 2 mps 735 mmHg 87%
    02:00 +14°C° 0 mm 2 mps 735 mmHg 90%
    03:00 +14°C° 0 mm 2 mps 735 mmHg 91%
    04:00 +14°C° 0 mm 2 mps 735 mmHg 91%
    05:00 +14°C° 0 mm 2 mps 735 mmHg 91%
    06:00 +16°C° 0 mm 3 mps 736 mmHg 80%
    07:00 +18°C° 0 mm 4 mps 736 mmHg 69%
    08:00 +20°C° 0 mm 4 mps 737 mmHg 59%
    09:00 +21°C° 0 mm 4 mps 737 mmHg 56%
    10:00 +22°C° 0 mm 5 mps 737 mmHg 53%
    11:00 +23°C° 0 mm 5 mps 737 mmHg 51%
    12:00 +23°C° 0 mm 5 mps 737 mmHg 50%
    13:00 +23°C° 0 mm 5 mps 737 mmHg 49%
    14:00 +25°C° 0 mm 5 mps 737 mmHg 48%
    15:00 +23°C° 0 mm 6 mps 737 mmHg 49%
    16:00 +23°C° 0 mm 6 mps 737 mmHg 51%
    17:00 +22°C° 0 mm 6 mps 737 mmHg 52%
    18:00 +20°C° 0 mm 5 mps 737 mmHg 56%
    19:00 +19°C° 0 mm 5 mps 737 mmHg 60%
    20:00 +17°C° 0 mm 4 mps 737 mmHg 63%
    21:00 +15°C° 0 mm 4 mps 737 mmHg 67%
    22:00 +13°C° 0 mm 4 mps 737 mmHg 70%
    23:00 +12°C° 0 mm 4 mps 737 mmHg 74%

    8 June, Monday

    Time Temperature Precipitation Wind Pressure Humidity
    00:00 +11°C° 0 mm 3 mps 737 mmHg 79%
    01:00 +11°C° 0 mm 3 mps 737 mmHg 83%
    02:00 +10°C° 0 mm 3 mps 737 mmHg 87%
    03:00 +10°C° 0 mm 3 mps 737 mmHg 88%
    04:00 +10°C° 0 mm 3 mps 737 mmHg 89%
    05:00 +11°C° 0 mm 3 mps 737 mmHg 90%
    06:00 +13°C° 0 mm 3 mps 737 mmHg 78%
    07:00 +16°C° 0 mm 3 mps 738 mmHg 66%
    08:00 +19°C° 0 mm 4 mps 738 mmHg 54%
    09:00 +20°C° 0 mm 4 mps 738 mmHg 47%
    10:00 +22°C° 0 mm 4 mps 738 mmHg 40%
    11:00 +25°C° 0 mm 4 mps 738 mmHg 33%
    12:00 +26°C° 0 mm 4 mps 738 mmHg 31%
    13:00 +26°C° 0 mm 5 mps 737 mmHg 30%
    14:00 +27°C° 0 mm 5 mps 737 mmHg 29%
    15:00 +26°C° 0 mm 5 mps 737 mmHg 32%
    16:00 +25°C° 0 mm 5 mps 737 mmHg 35%
    17:00 +23°C° 0 mm 6 mps 737 mmHg 37%
    18:00 +21°C° 0 mm 5 mps 737 mmHg 46%
    19:00 +19°C° 0 mm 5 mps 737 mmHg 55%
    20:00 +16°C° 0 mm 5 mps 737 mmHg 64%
    21:00 +15°C° 0 mm 4 mps 737 mmHg 70%
    22:00 +14°C° 0 mm 4 mps 737 mmHg 76%
    23:00 +13°C° 0 mm 3 mps 737 mmHg 81%

    9 June, Tuesday

    Time Temperature Precipitation Wind Pressure Humidity
    00:00 +12°C° 0 mm 3 mps 737 mmHg 85%
    01:00 +13°C° 0 mm 2 mps 736 mmHg 89%
    02:00 +12°C° 0 mm 2 mps 736 mmHg 93%
    03:00 +12°C° 0 mm 1 mps 736 mmHg 92%
    04:00 +12°C° 0 mm 1 mps 736 mmHg 92%
    05:00 +13°C° 0 mm 1 mps 736 mmHg 92%
    06:00 +15°C° 0 mm 1 mps 737 mmHg 79%
    07:00 +19°C° 0 mm 1 mps 737 mmHg 66%
    08:00 +22°C° 0 mm 1 mps 737 mmHg 53%
    09:00 +24°C° 0 mm 1 mps 737 mmHg 45%
    10:00 +26°C° 0 mm 1 mps 737 mmHg 37%
    11:00 +28°C° 0 mm 1 mps 737 mmHg 29%
    12:00 +29°C° 0 mm 1 mps 737 mmHg 26%
    13:00 +29°C° 0 mm 1 mps 737 mmHg 23%
    14:00 +30°C° 0 mm 1 mps 736 mmHg 21%
    15:00 +29°C° 0 mm 2 mps 736 mmHg 22%
    16:00 +29°C° 0 mm 2 mps 736 mmHg 24%
    17:00 +28°C° 0 mm 3 mps 736 mmHg 25%
    18:00 +26°C° 0 mm 3 mps 736 mmHg 34%
    19:00 +24°C° 0 mm 3 mps 737 mmHg 42%
    20:00 +21°C° 0 mm 3 mps 737 mmHg 50%
    21:00 +20°C° 0 mm 3 mps 737 mmHg 53%
    22:00 +19°C° 0 mm 2 mps 737 mmHg 56%
    23:00 +18°C° 0 mm 2 mps 737 mmHg 59%
    Show more